Showing default

JILIN-01 GAOFEN 2A, 44777

Orbit data source: Space-Track

JILIN-01 GAOFEN 2A, 44777 is a payload satellite owned by Changguang WJ (CN) in SSO that was launched on Wed, 13 Nov 2019 UTC via a KUAIZHOU-1A launch vehicle from the Jiuquan Satellite Launch Center, China (JSC). Payload-class satellites include a variety of spacecraft equipped with specific instruments for various scientific and technological missions. These include communications satellites like Starlink; space stations such as the ISS; scientific satellites like the Hubble; Earth observation satellites from companies like Planet Labs, Umbra, and HawkEye 360; GPS; miniature CubeSats for education and research; and military/defense satellites.

Loading next visibility...
Identifier
44777, 2019-075A
Orbit
SSO
Country
Flag of CNCN / PRC
Related business
Manufacturer
Changguang WJ
Mission
Operational Commercial Imaging
Bus & Motor
JL-1, Unknown motor
Mass
230 kg wet, 230 kg dry
Launch date (UTC)
2019-11-13 (6 years ago)
Launch vehicle
KUAIZHOU-1A
Launch site
Jiuquan Satellite Launch Center, China (JSC)
Object type
Payload
Rocket body
Debris
Shape & HBR
Box + 2 Pan, 0.8 m
Radar Cross Section
2.000 m², Large (>1 m²)

Expand to show TLE details & history
Last TLE update: 10 hours ago

TLE from 10 hours ago
0 JILIN-01 GAOFEN 2A
1 44777U 19075A   25302.93095227  .00018429  00000-0  60496-3 0  9992
2 44777  97.5191  17.3590 0007825 176.6692 183.4603 15.31615110329549
Epoch: 2025-10-29T22:20Z
TLE epoch observation values (Epoch: 2025-10-29T22:20:34.276Z)
Latitude
0.00004°
Longitude
3.71916°
Altitude
479.447 km
Speed
7.623 km/s
True Right ascension
01h 09m 26s
True Declination
0° 00' 00"
Sunlit
Object was in full shadow at epoch
Visualization orbit readout
Latitude
Unknown
Longitude
Unknown
Altitude
Unknown
Speed
Unknown
Apparent Right ascension
Unknown
Apparent Declination
Unknown
Sunlit
N/A
Visualization observer readout
Local Sidereal Time
04:14:14
Azimuth
Unknown
Elevation
Unknown
Doppler factor
Unknown
Orbital elements
Apogee altitude
473.305 km
Perigee altitude
462.591 km
Semi-major axis
6,846.085 km
Eccentricity
0.00078
Inclination
97.5191°
RAAN
17.359°
Arg. of periapsis
176.6692°
True anomaly
183.45489°
Mean anomaly
183.4603°
Eccentric anomaly
183.4576°
Mean motion
3.8316 °/min
Orbital period
93.96 mins
BSTAR
0.00060496
Loading maneuver chart data...
Computing Atmospheric mass density...
Loading historical data...
Loading historical data...
Loading historical data...
Loading historical data...
Loading historical data...
Loading historical data...
Loading historical data...
Other satellites on launch #75 in the year 2019 (2019-11-13 UTC)

Documentation

Showing up to 5 results
|